F1IRU-13 Weather Reports


Display with metric or nautical units.
time (UTC)temp
F
wind
direction
speed
MPH
gust
MPH
rain 1hr
in
rain 24hr
in
rain mn
in
humidity
%
barometer
mb
20260506083729 55 71 2.0 6.0 0.00 0.03 0.01 91 1008.7
20260506083452 55 67 3.0 6.0 0.00 0.03 0.01 91 1008.7
20260506082720 55 75 3.0 7.0 0.00 0.03 0.01 91 1008.8
20260506082221 55 71 2.0 7.0 0.00 0.03 0.01 91 1008.6
20260506081721 55 58 2.0 7.0 0.00 0.03 0.01 91 1008.7
20260506081219 55 62 2.0 7.0 0.00 0.03 0.01 91 1008.6
20260506080721 55 69 1.0 5.0 0.00 0.03 0.01 91 1008.7
20260506080211 54 68 2.0 6.0 0.00 0.04 0.01 92 1008.7
20260506073314 55 269 0.0 0.0 0.00 0.04 0.01 92 1008.4
20260506072520 55 269 0.0 1.0 0.00 0.04 0.01 92 1008.3
20260506072012 55 269 0.0 1.0 0.00 0.04 0.01 93 1008.4
20260506071726 55 269 0.0 0.0 0.00 0.04 0.01 93 1008.2
20260506070956 54 269 0.0 0.0 0.00 0.04 0.01 93 1008.2
20260506070446 54 269 0.0 0.0 0.00 0.04 0.01 93 1008.2
20260506062217 53 269 0.0 0.0 0.00 0.04 0.01 93 1008.1
20260506061709 53 269 0.0 0.0 0.00 0.04 0.01 93 1008.0
20260506061203 53 269 0.0 0.0 0.00 0.04 0.01 93 1008.0
20260506060654 53 269 0.0 0.0 0.00 0.04 0.01 93 1008.0
20260506060139 53 269 0.0 0.0 0.00 0.04 0.01 93 1008.0
20260506050848 53 269 0.0 0.0 0.00 0.04 0.01 93 1007.7
20260506050326 53 269 0.0 0.0 0.00 0.04 0.01 93 1007.6
20260506044720 53 269 0.0 0.0 0.01 0.04 0.01 93 1007.6
20260506044220 52 269 0.0 0.0 0.01 0.04 0.01 93 1007.6
20260506043716 52 269 0.0 0.0 0.01 0.04 0.01 93 1007.6
20260506043208 52 269 0.0 0.0 0.01 0.04 0.01 93 1007.5
20260506042701 52 269 0.0 0.0 0.01 0.04 0.01 93 1007.4
20260506042152 52 269 0.0 0.0 0.01 0.04 0.01 93 1007.4
20260506041643 52 269 0.0 0.0 0.01 0.04 0.01 93 1007.3
20260506041121 52 269 0.0 0.0 0.01 0.04 0.01 93 1007.4
20260506040616 52 269 0.0 0.0 0.01 0.04 0.01 93 1007.4
20260506040116 52 269 0.0 0.0 0.01 0.04 0.01 93 1007.4
20260506035613 52 269 0.0 0.0 0.01 0.04 0.01 93 1007.5
20260506035320 52 269 0.0 0.0 0.00 0.03 0.00 93 1007.5
20260506034527 52 269 0.0 0.0 0.00 0.03 0.00 93 1007.6
20260506034021 52 269 0.0 0.0 0.00 0.03 0.00 93 1007.4
20260506033520 52 269 0.0 0.0 0.00 0.03 0.00 93 1007.6
20260506033018 52 269 0.0 0.0 0.00 0.04 0.00 93 1007.4
20260506032424 52 269 0.0 0.0 0.00 0.04 0.00 93 1007.5
20260506031920 52 269 0.0 0.0 0.00 0.04 0.00 93 1007.5
20260506031401 52 269 0.0 0.0 0.00 0.04 0.00 93 1007.6
20260506030821 52 269 0.0 0.0 0.00 0.04 0.00 93 1007.6
20260506030548 52 269 0.0 0.0 0.00 0.04 0.00 93 1007.6
20260506030046 52 269 0.0 0.0 0.00 0.04 0.00 93 1007.6
20260506025300 52 269 0.0 0.0 0.00 0.04 0.00 93 1007.7
20260506024743 52 269 0.0 0.0 0.00 0.04 0.00 93 1007.5
20260506024235 52 269 0.0 0.0 0.00 0.04 0.00 93 1007.6
20260506023721 52 269 0.0 0.0 0.00 0.04 0.00 93 1007.6
20260506023219 52 269 0.0 0.0 0.00 0.04 0.00 93 1007.6
20260506022719 52 269 0.0 0.0 0.00 0.04 0.00 93 1007.6
20260506022218 52 269 0.0 0.0 0.00 0.04 0.00 93 1007.6
20260506021716 52 269 0.0 0.0 0.00 0.04 0.00 93 1007.6
20260506021213 52 269 0.0 0.0 0.00 0.04 0.00 93 1007.8
20260506020653 52 269 0.0 0.0 0.00 0.04 0.00 93 1007.8
20260506020153 52 269 0.0 0.0 0.00 0.04 0.00 93 1007.9
20260506015629 52 269 0.0 0.0 0.00 0.04 0.00 93 1007.8
20260506015623 52 269 0.0 0.0 0.00 0.04 0.00 93 1007.8
20260506014851 52 269 0.0 0.0 0.00 0.04 0.00 93 1007.7
20260506014346 52 269 0.0 0.0 0.00 0.04 0.00 93 1007.9
20260506013609 52 269 0.0 0.0 0.00 0.04 0.00 92 1007.9
20260506013105 52 269 0.0 0.0 0.00 0.04 0.00 93 1008.0
20260506012537 52 269 0.0 0.0 0.00 0.04 0.00 93 1008.0
20260506012028 51 269 0.0 0.0 0.00 0.04 0.00 92 1008.0
20260506011748 51 269 0.0 0.0 0.00 0.04 0.00 92 1008.1
20260506011015 51 269 0.0 0.0 0.00 0.04 0.00 92 1008.1
20260506010505 51 269 0.0 0.0 0.00 0.04 0.00 92 1008.1
20260506010004 51 269 0.0 0.0 0.00 0.04 0.00 92 1008.2
20260506005425 51 269 0.0 0.0 0.00 0.04 0.00 92 1008.2
20260506004924 51 269 0.0 0.0 0.00 0.04 0.00 92 1008.2
20260506004415 51 269 0.0 0.0 0.00 0.04 0.00 91 1008.2
20260506003907 51 269 0.0 0.0 0.00 0.04 0.00 91 1008.2
20260506003408 51 269 0.0 0.0 0.00 0.04 0.00 91 1008.2
20260506002903 51 269 0.0 0.0 0.00 0.04 0.00 91 1008.2
20260506002354 52 269 0.0 0.0 0.00 0.04 0.00 91 1008.2
20260506001836 52 269 0.0 0.0 0.00 0.04 0.00 91 1008.2
20260506001322 52 269 0.0 0.0 0.00 0.04 0.00 91 1008.3
20260506000820 52 269 0.0 0.0 0.00 0.04 0.00 91 1008.2
20260506000317 52 269 0.0 0.0 0.00 0.04 0.00 91 1008.3
20260505235815 52 269 0.0 0.0 0.00 0.04 0.00 91 1008.4
20260505235317 52 269 0.0 0.0 0.00 0.05 0.00 91 1008.3
20260505234802 52 269 0.0 0.0 0.00 0.05 0.00 91 1008.5
20260505234302 52 269 0.0 0.0 0.00 0.05 0.00 91 1008.5
20260505233757 52 269 0.0 0.0 0.00 0.05 0.00 90 1008.5
20260505233228 52 269 0.0 0.0 0.00 0.05 0.00 90 1008.4
20260505232727 52 269 0.0 0.0 0.00 0.05 0.00 90 1008.5
20260505232721 53 269 0.0 0.0 0.00 0.05 0.00 90 1008.5
20260505231659 53 269 0.0 0.0 0.00 0.05 0.00 90 1008.4
20260505231159 53 269 0.0 2.0 0.00 0.05 0.00 90 1008.3
20260505230631 53 269 0.0 2.0 0.00 0.05 0.00 90 1008.5
20260505230121 53 272 0.0 0.0 0.00 0.05 0.00 90 1008.6
20260505225622 53 272 0.0 2.0 0.00 0.05 0.00 90 1008.6
20260505225117 54 273 0.0 2.0 0.00 0.05 0.00 90 1008.5
20260505224616 54 285 0.0 0.0 0.00 0.05 0.00 90 1008.5
20260505224118 54 285 0.0 0.0 0.00 0.05 0.00 89 1008.4
20260505224103 54 285 0.0 0.0 0.00 0.05 0.00 89 1008.4
20260505223059 54 285 0.0 0.0 0.00 0.05 0.00 89 1008.5
20260505222547 55 285 0.0 0.0 0.00 0.05 0.00 89 1008.4
20260505222038 55 285 0.0 0.0 0.00 0.05 0.00 89 1008.6
20260505221529 55 285 0.0 0.0 0.00 0.05 0.00 89 1008.6
20260505221021 55 285 0.0 0.0 0.00 0.05 0.00 89 1008.6
20260505220515 55 285 0.0 4.0 0.00 0.05 0.00 89 1008.6
20260505220027 55 293 0.0 4.0 0.00 0.05 0.00 88 1008.5
20260505215453 56 321 0.0 3.0 0.00 0.05 0.05 88 1008.4
20260505214921 56 291 0.0 3.0 0.00 0.05 0.05 88 1008.6
20260505214644 56 338 0.0 3.0 0.00 0.05 0.05 88 1008.5
20260505214136 56 306 1.0 4.0 0.00 0.05 0.05 88 1008.8
20260505213357 56 267 1.0 4.0 0.00 0.05 0.05 88 1008.7
20260505212838 57 285 0.0 7.0 0.00 0.05 0.05 89 1008.9
20260505212329 57 269 1.0 7.0 0.00 0.05 0.05 89 1008.7
20260505211821 57 286 2.0 7.0 0.00 0.05 0.05 89 1008.9
20260505211317 57 280 1.0 7.0 0.00 0.05 0.05 89 1008.9
20260505210819 57 255 1.0 4.0 0.00 0.05 0.05 90 1008.8
20260505210316 57 255 0.0 4.0 0.00 0.05 0.05 90 1009.0
20260505210046 57 252 0.0 0.0 0.00 0.05 0.05 90 1008.9
20260505205316 57 252 0.0 0.0 0.00 0.05 0.05 89 1008.8
20260505204816 57 252 0.0 0.0 0.00 0.05 0.05 89 1008.9
20260505204240 57 252 0.0 0.0 0.00 0.05 0.05 89 1008.9
20260505203716 57 252 0.0 0.0 0.00 0.05 0.05 89 1009.0
20260505203212 57 252 0.0 0.0 0.00 0.05 0.05 89 1008.8
20260505203149 57 252 0.0 0.0 0.00 0.06 0.05 88 1008.9
20260505202121 57 252 0.0 0.0 0.01 0.06 0.05 88 1008.9
20260505201616 57 252 0.0 0.0 0.01 0.06 0.05 88 1008.7
20260505201116 57 252 0.0 0.0 0.01 0.06 0.05 88 1008.6
20260505200616 57 252 0.0 0.0 0.01 0.06 0.05 87 1008.7
20260505200055 57 252 0.0 0.0 0.01 0.06 0.05 87 1008.7
20260505195548 57 252 0.0 0.0 0.01 0.06 0.05 87 1008.6
20260505195020 57 252 0.0 1.0 0.01 0.06 0.05 86 1008.6
20260505194519 57 252 0.0 1.0 0.01 0.06 0.05 86 1008.4
20260505194248 57 241 0.0 1.0 0.01 0.06 0.05 86 1008.4
20260505193515 57 5 0.0 0.0 0.01 0.06 0.05 86 1008.4
20260505193235 58 296 0.0 0.0 0.01 0.06 0.05 86 1008.4
20260505192446 57 300 0.0 0.0 0.00 0.05 0.05 86 1008.4
20260505191944 57 300 0.0 0.0 0.00 0.05 0.04 85 1008.4
20260505191445 58 300 0.0 0.0 0.00 0.05 0.04 85 1008.6
20260505190942 58 298 0.0 0.0 0.00 0.05 0.04 85 1008.5
20260505190430 58 298 0.0 0.0 0.00 0.05 0.04 84 1008.4
20260505185926 58 298 0.0 0.0 0.00 0.05 0.04 84 1008.3
20260505185401 58 298 0.0 0.0 0.00 0.05 0.04 83 1008.3
20260505185128 58 298 0.0 0.0 0.00 0.05 0.04 83 1008.4
20260505184345 58 298 0.0 0.0 0.00 0.05 0.04 83 1008.4
20260505183840 58 298 0.0 0.0 0.00 0.05 0.04 83 1008.4
20260505183555 58 298 0.0 0.0 0.00 0.05 0.04 83 1008.4
20260505182813 58 298 0.0 0.0 0.00 0.05 0.04 83 1008.4
20260505182536 58 298 0.0 0.0 0.00 0.05 0.04 83 1008.4
20260505181745 58 298 0.0 0.0 0.00 0.05 0.04 82 1008.4
20260505181240 58 298 0.0 0.0 0.00 0.05 0.04 82 1008.5
20260505181000 58 298 0.0 1.0 0.00 0.06 0.04 82 1008.5
20260505180222 58 298 0.0 4.0 0.00 0.06 0.04 81 1008.4
20260505175951 58 298 0.0 4.0 0.00 0.06 0.04 81 1008.3
20260505175216 58 261 0.0 5.0 0.00 0.06 0.04 80 1008.4
20260505174710 58 275 0.0 5.0 0.00 0.06 0.04 80 1008.3
20260505174204 58 274 0.0 5.0 0.00 0.06 0.04 79 1008.2
20260505173704 59 295 1.0 6.0 0.00 0.06 0.04 79 1008.1
20260505173159 59 268 1.0 7.0 0.00 0.06 0.04 77 1008.0
20260505172655 59 349 2.0 10.0 0.00 0.06 0.04 77 1008.2
20260505172157 59 325 2.0 12.0 0.00 0.06 0.04 77 1008.1
20260505171924 59 315 2.0 12.0 0.00 0.06 0.04 76 1008.0
20260505171146 60 355 2.0 10.0 0.00 0.06 0.04 77 1008.0
20260505170638 60 347 3.0 12.0 0.00 0.06 0.04 77 1008.1
20260505170131 61 317 2.0 12.0 0.00 0.06 0.04 80 1007.9
20260505165854 61 341 1.0 7.0 0.00 0.06 0.04 80 1007.9
20260505165119 62 351 1.0 5.0 0.00 0.06 0.04 78 1008.0
20260505164605 62 294 2.0 11.0 0.00 0.06 0.04 75 1008.1
20260505164103 64 300 3.0 11.0 0.00 0.06 0.04 72 1008.0
20260505163535 64 236 3.0 8.0 0.01 0.06 0.04 68 1007.9
20260505163042 66 284 5.0 14.0 0.01 0.06 0.04 64 1007.9
20260505163035 65 341 5.0 14.0 0.01 0.06 0.04 66 1007.8
20260505162025 67 251 3.0 10.0 0.01 0.06 0.04 66 1007.9
20260505161750 66 317 3.0 10.0 0.01 0.06 0.04 65 1007.9
20260505161011 67 5 4.0 10.0 0.01 0.06 0.04 62 1008.0
20260505160457 66 312 3.0 9.0 0.01 0.06 0.04 62 1008.0
20260505152950 65 325 5.0 13.0 0.00 0.06 0.03 63 1007.7
20260505152443 66 319 5.0 16.0 0.00 0.06 0.03 61 1007.9
20260505151934 67 323 2.0 16.0 0.00 0.06 0.03 59 1007.8
20260505151426 68 292 1.0 6.0 0.00 0.06 0.03 60 1007.8
20260505151146 68 324 1.0 6.0 0.00 0.06 0.03 58 1007.7
20260505150412 69 346 2.0 7.0 0.00 0.06 0.03 58 1007.9
20260505150142 69 339 2.0 9.0 0.00 0.06 0.03 61 1007.9
20260505140336 67 286 3.0 10.0 0.00 0.06 0.03 61 1008.1
20260505130220 65 273 4.0 11.0 0.01 0.07 0.03 63 1008.3
20260505124943 65 334 4.0 10.0 0.01 0.07 0.03 66 1008.3
20260505124212 65 290 2.0 9.0 0.01 0.08 0.03 67 1008.4
20260505123718 65 295 3.0 12.0 0.01 0.08 0.03 67 1008.6
20260505123712 65 332 2.0 9.0 0.01 0.08 0.03 66 1008.4
20260505122710 65 267 3.0 12.0 0.01 0.08 0.03 63 1008.5
20260505122201 65 315 3.0 12.0 0.01 0.08 0.03 68 1008.4
20260505121653 65 258 2.0 11.0 0.01 0.08 0.03 66 1008.5
20260505121142 65 348 3.0 9.0 0.00 0.07 0.02 67 1008.4
20260505120914 65 286 3.0 9.0 0.00 0.07 0.02 66 1008.4
20260505120404 65 338 3.0 9.0 0.00 0.07 0.02 65 1008.4
20260505115623 65 316 4.0 12.0 0.00 0.07 0.02 65 1008.5
20260505115122 65 327 3.0 12.0 0.00 0.07 0.02 67 1008.6
20260505114846 65 339 2.0 7.0 0.00 0.07 0.02 70 1008.6
20260505114110 65 323 3.0 9.0 0.00 0.07 0.02 68 1008.6
20260505113609 64 298 3.0 10.0 0.00 0.08 0.02 70 1008.6
20260505113310 64 306 3.0 10.0 0.00 0.08 0.02 71 1008.6
20260505112542 64 322 2.0 8.0 0.00 0.08 0.02 71 1008.7
20260505112037 63 251 3.0 7.0 0.00 0.08 0.02 72 1008.7
20260505111811 63 329 3.0 11.0 0.00 0.08 0.02 73 1008.9
20260505111037 63 355 2.0 11.0 0.00 0.08 0.02 71 1008.8
20260505110538 62 313 2.0 11.0 0.00 0.08 0.02 76 1009.1
20260505101957 61 322 2.0 7.0 0.00 0.09 0.02 77 1008.8
20260505101722 61 316 2.0 10.0 0.00 0.09 0.02 77 1009.0
20260505100952 61 54 2.0 10.0 0.00 0.09 0.02 79 1008.8
20260505100446 60 304 2.0 10.0 0.00 0.09 0.02 79 1008.9
20260505095944 60 293 2.0 9.0 0.00 0.09 0.02 79 1008.9
20260505095424 60 335 3.0 11.0 0.00 0.09 0.02 79 1008.8
20260505094930 60 344 3.0 9.0 0.00 0.09 0.02 78 1008.8
20260505094924 60 336 3.0 11.0 0.00 0.09 0.02 78 1008.9
20260505093922 60 348 3.0 9.0 0.00 0.09 0.02 79 1008.8
20260505093416 60 337 3.0 8.0 0.00 0.09 0.02 79 1008.9
20260505092858 60 338 4.0 9.0 0.00 0.09 0.02 79 1008.7
20260505092354 60 306 4.0 10.0 0.00 0.09 0.02 79 1008.8
20260505091852 60 291 4.0 11.0 0.00 0.09 0.02 80 1008.8
20260505091351 60 14 4.0 11.0 0.00 0.09 0.02 79 1008.7
20260505091122 60 350 3.0 11.0 0.00 0.09 0.02 80 1008.7
20260505090350 60 304 3.0 11.0 0.01 0.09 0.02 79 1008.7
20260505085850 60 311 3.0 10.0 0.01 0.09 0.02 81 1008.5
20260505085351 60 355 3.0 7.0 0.01 0.09 0.02 82 1008.6
20260505085121 59 296 2.0 7.0 0.01 0.09 0.02 82 1008.7
20260505084610 59 337 2.0 8.0 0.01 0.10 0.02 83 1008.6